Lid_Strength_Index
-2 -2 -2 -2 -2 -1 -1 0 0 1 1 0 0 1 1 1 1 -0 -1 -1 -1 -1 -1 -1 -1 -1 1 5 5 -1 -1 -1 -0 1 3 4 6 7 9 8 7 9 8 6 6 6 7
-2 -2 -2 -2 -2 -2 -1 -0 0 1 1 0 0 -0 1 2 1 1 -0 -1 -1 -1 -1 -1 -1 -1 4 10 2 -1 -0 0 1 2 3 4 5 5 7 7 8 7 7 7 6 7 7
-2 -2 -2 -2 -2 -2 -2 -1 -0 0 1 0 0 -0 -0 1 1 1 0 -1 -1 -1 -1 -1 -1 1 5 6 2 2 1 2 1 2 4 3 3 6 6 8 6 7 10 8 8 7 8
-2 -2 -2 -2 -2 -2 -2 -2 -1 -1 -1 -0 0 0 -0 -0 0 1 0 -1 -1 -1 -1 -2 -1 2 7 2 3 2 2 3 1 1 2 2 2 5 7 6 7 9 10 13 9 7 7
-2 -2 -2 -2 -2 -2 -2 -2 -2 -2 -1 -1 -0 0 0 -0 -0 0 -0 -1 -0 -1 -1 -1 2 3 8 2 5 2 1 3 3 2 2 2 3 7 7 11 13 12 15 13 11 8 8
-2 -2 -2 -2 -2 -2 -2 -2 -2 -2 -2 -1 -1 -0 0 -0 0 0 -0 -1 -1 0 -0 0 1 7 6 7 4 3 1 1 4 4 5 6 7 10 10 12 17 15 15 13 13 11 10
-2 -2 -2 -2 -2 -2 -1 -1 -1 -1 -2 -2 -1 -1 -0 -0 -0 0 0 1 4 5 4 6 6 7 6 4 3 4 2 3 4 6 11 8 12 14 12 10 10 12 13 14 13 10 10
-2 -2 -2 -2 -2 -2 -1 -1 -1 -2 -1 -2 -2 -1 -1 -0 -1 0 1 4 4 3 8 4 4 5 4 4 7 5 2 7 8 11 9 11 13 10 9 9 11 12 13 14 12 10 11
-2 -2 -2 -2 -2 -2 -1 -1 -1 -1 -1 -1 -2 -2 -1 -1 -1 1 3 3 1 1 8 7 5 6 6 4 7 7 4 6 9 11 11 12 11 8 9 11 12 12 13 13 13 11 11
-1 -1 -1 -1 -1 -1 -1 -1 -1 -1 -1 -1 -2 -2 -2 -1 3 3 5 2 0 0 12 11 8 6 5 5 8 4 3 6 8 11 10 11 8 10 10 11 11 14 10 10 12 13 17
-1 -1 -1 -1 -1 -1 -1 -1 -1 -1 -1 -1 -1 -2 -2 -0 4 4 3 2 -0 3 20 9 8 3 4 7 7 7 3 6 10 10 10 12 11 11 12 11 9 12 9 10 11 13 15
-1 -0 -1 -1 -1 -1 -1 -1 -1 -1 -1 -1 -1 -1 -1 1 3 2 0 1 2 13 19 12 8 9 9 8 8 6 7 5 6 9 10 10 8 9 9 8 8 8 10 11 12 13 19
-0 -0 -0 -1 -1 -1 -1 -1 -1 -1 -1 -1 -1 -1 -0 0 5 1 1 4 13 18 11 13 12 10 10 11 10 9 10 11 12 15 15 11 11 9 8 10 9 10 13 19 20 20 19
-0 -0 -0 -1 -1 -1 -1 -1 -1 -1 -1 -1 -1 -1 -1 0 1 1 3 10 17 13 13 9 10 10 12 10 10 10 11 13 10 12 14 16 17 11 8 10 12 12 12 17 22 21 18
-0 -0 -0 -1 -1 -1 -1 -1 -1 -1 -1 -1 -1 1 3 2 0 2 8 14 15 13 10 11 11 13 13 11 11 11 12 12 10 10 14 15 16 11 9 8 9 12 15 11 16 17 18
-0 -0 -0 -1 -1 -1 -1 -1 -1 -1 -1 -1 2 3 4 1 0 3 10 13 13 9 9 10 14 12 15 13 13 13 13 10 11 8 8 12 17 11 10 8 9 11 9 16 15 21 23
-0 -1 -1 -1 -1 -1 -1 -1 -1 -1 -1 -1 3 7 3 1 3 9 15 16 12 8 8 11 12 13 13 13 12 13 13 10 9 9 8 10 12 14 11 13 13 12 14 13 13 15 19
-1 -1 -1 -1 -1 -1 -1 -1 -1 -1 -1 3 6 10 2 2 13 13 18 17 8 10 8 9 10 11 12 11 13 12 13 11 7 8 11 10 12 16 14 10 9 9 12 12 17 18 16
-1 -1 -1 -1 -1 -1 -1 -1 -1 -1 0 5 9 8 3 5 17 17 18 14 10 10 9 10 10 9 12 12 14 12 11 8 7 8 10 9 13 17 16 13 11 13 11 11 12 14 17
-1 -1 -1 -1 -1 -0 -1 -1 -1 -0 1 4 8 11 9 7 12 15 17 17 15 8 9 8 10 9 11 13 12 12 11 9 7 8 7 8 12 14 16 15 12 14 13 12 13 16 16
-1 -1 -1 -1 -1 -1 -1 0 1 1 2 5 9 11 11 12 12 13 11 13 15 15 9 8 11 12 12 14 13 13 11 10 8 7 8 9 15 13 12 12 12 12 12 12 14 13 16
-1 -1 -1 -1 -1 -1 -1 -0 0 1 2 6 10 10 9 10 11 12 12 15 12 12 10 10 11 11 10 12 11 13 11 11 11 9 10 9 15 13 15 12 12 14 12 12 12 12 12
-1 -1 -1 -1 -1 -1 -1 -1 -0 -0 2 7 6 6 8 12 15 13 12 12 12 10 9 8 9 10 11 10 8 8 7 8 8 10 11 11 13 14 17 13 14 16 13 12 11 11 11
-1 -1 -1 -1 -1 -0 -0 -0 0 1 2 6 5 6 9 15 12 11 10 10 11 10 11 8 8 9 8 5 6 8 9 9 9 9 8 12 13 13 16 16 20 12 10 9 11 10 9
-1 -1 -1 -1 -0 -1 -0 0 -0 -0 1 3 4 6 8 12 10 9 9 10 8 7 8 9 7 6 5 7 11 13 14 12 12 11 11 10 12 15 17 17 14 12 11 11 12 12 8
-1 -1 -1 -1 -1 -1 -1 -1 -0 -0 0 3 4 3 5 10 11 9 10 8 11 10 9 8 6 5 6 10 13 17 17 17 18 16 11 10 10 13 18 18 20 12 9 8 9 15 9
0 -0 -1 -1 -1 -1 -1 -1 -1 -1 -1 2 5 4 5 11 9 10 10 9 8 10 11 10 10 10 8 13 17 17 19 16 19 20 15 14 13 16 16 17 15 11 10 9 15 13 9
1 1 1 0 -0 -0 0 0 0 0 -0 4 6 6 6 9 9 11 10 11 9 10 13 11 11 11 12 14 18 17 17 15 18 16 16 15 15 15 15 17 18 10 11 12 10 10 11
2 2 1 1 1 0 0 -0 1 1 1 1 6 5 5 9 8 8 8 8 9 9 9 10 11 13 10 15 17 18 20 20 19 19 13 16 13 16 14 14 10 10 10 10 10 9 10